カタログに戻る

METEOR 2-11 DEB

運用中PO
NORAD 40317·DEBRIS·🇷🇺 Russia

打ち上げ Jul 5, 1984 から Plesetsk Cosmodrome

Loading…

次のパス (今後24時間)

TLE

最新Source: Space-Track

元期: Sep 13, 2026, 10:24 UTC

1 40317U 84072C   26256.43373203  .00001458  00000-0  98769-3 0  9992
2 40317  82.5168 293.6948 0011904 156.1115 204.0608 13.99603111598380

AllMySatでMETEOR 2-11 DEBをリアルタイム追跡

Download on the App Store